• In Latvia
  • List of Countries
  • For 7 days
  • Water Temperature
  • Satellite Maps
  • Weather Map
  • Weather Widgets
  • user-avatar
    Login

    Hourly Weather Glarus

    Today, 12 November, Monday

    Time Temperature Precipitation Wind Pressure Humidity
    00:00 +10°C° 0 mm 3 mps 715 mmHg 83%
    01:00 +10°C° 0 mm 3 mps 715 mmHg 82%
    02:00 +10°C° 0 mm 3 mps 715 mmHg 82%
    03:00 +10°C° 0 mm 3 mps 715 mmHg 83%
    04:00 +10°C° 0 mm 3 mps 715 mmHg 83%
    05:00 +11°C° 0 mm 3 mps 715 mmHg 83%
    06:00 +11°C° 0 mm 3 mps 715 mmHg 83%
    07:00 +10°C° 0 mm 2 mps 715 mmHg 85%
    08:00 +12°C° 0 mm 3 mps 716 mmHg 81%
    09:00 +13°C° 0 mm 3 mps 716 mmHg 78%
    10:00 +16°C° 0 mm 3 mps 716 mmHg 75%
    11:00 +16°C° 0 mm 3 mps 716 mmHg 72%
    12:00 +17°C° 0 mm 3 mps 716 mmHg 70%
    13:00 +17°C° 0 mm 3 mps 717 mmHg 69%
    14:00 +17°C° 0 mm 3 mps 717 mmHg 72%
    15:00 +16°C° 0 mm 3 mps 717 mmHg 75%
    16:00 +16°C° 0 mm 2 mps 717 mmHg 78%
    17:00 +15°C° 0 mm 2 mps 717 mmHg 80%
    18:00 +14°C° 0 mm 2 mps 717 mmHg 82%
    19:00 +13°C° 0 mm 2 mps 717 mmHg 84%
    20:00 +12°C° 0 mm 2 mps 717 mmHg 84%
    21:00 +12°C° 0 mm 2 mps 718 mmHg 84%
    22:00 +12°C° 0 mm 2 mps 718 mmHg 84%
    23:00 +12°C° 0 mm 2 mps 718 mmHg 84%

    Tomorrow, 13 November, Tuesday

    Time Temperature Precipitation Wind Pressure Humidity
    00:00 +12°C° 0 mm 2 mps 718 mmHg 84%
    01:00 +12°C° 0 mm 2 mps 718 mmHg 84%
    02:00 +12°C° 0 mm 2 mps 718 mmHg 85%
    03:00 +12°C° 0 mm 2 mps 718 mmHg 85%
    04:00 +10°C° 0 mm 2 mps 718 mmHg 85%
    05:00 +10°C° 0 mm 2 mps 718 mmHg 85%
    06:00 +10°C° 0 mm 2 mps 719 mmHg 85%
    07:00 +10°C° 0 mm 2 mps 719 mmHg 85%
    08:00 +12°C° 0 mm 1 mps 720 mmHg 82%
    09:00 +13°C° 0 mm 1 mps 720 mmHg 79%
    10:00 +15°C° 0 mm 1 mps 721 mmHg 75%
    11:00 +15°C° 0 mm 1 mps 721 mmHg 76%
    12:00 +15°C° 0 mm 1 mps 721 mmHg 76%
    13:00 +15°C° 0 mm 2 mps 721 mmHg 77%
    14:00 +15°C° 0 mm 1 mps 721 mmHg 80%
    15:00 +14°C° 0 mm 1 mps 721 mmHg 83%
    16:00 +13°C° 0 mm 1 mps 721 mmHg 87%
    17:00 +13°C° 0 mm 1 mps 721 mmHg 88%
    18:00 +12°C° 0 mm 1 mps 722 mmHg 90%
    19:00 +11°C° 0 mm 1 mps 722 mmHg 92%
    20:00 +11°C° 0 mm 1 mps 722 mmHg 92%
    21:00 +11°C° 0 mm 1 mps 722 mmHg 92%
    22:00 +11°C° 0 mm 1 mps 722 mmHg 91%
    23:00 +10°C° 0 mm 1 mps 722 mmHg 91%

    Day after tomorrow, 14 November, Wednesday

    Time Temperature Precipitation Wind Pressure Humidity
    00:00 +10°C° 0 mm 1 mps 722 mmHg 91%
    01:00 +10°C° 0 mm 1 mps 722 mmHg 90%
    02:00 +10°C° 0 mm 1 mps 722 mmHg 89%
    03:00 +10°C° 0 mm 1 mps 722 mmHg 88%
    04:00 +10°C° 0 mm 1 mps 722 mmHg 86%
    05:00 +10°C° 0 mm 1 mps 721 mmHg 85%
    06:00 +9°C° 0 mm 1 mps 721 mmHg 84%
    07:00 +9°C° 0 mm 1 mps 721 mmHg 83%
    08:00 +11°C° 0 mm 1 mps 721 mmHg 78%
    09:00 +13°C° 0 mm 1 mps 721 mmHg 73%
    10:00 +14°C° 0 mm 1 mps 722 mmHg 69%
    11:00 +15°C° 0 mm 1 mps 721 mmHg 67%
    12:00 +16°C° 0 mm 1 mps 721 mmHg 64%
    13:00 +18°C° 0 mm 1 mps 721 mmHg 62%
    14:00 +16°C° 0 mm 1 mps 720 mmHg 67%
    15:00 +15°C° 0 mm 1 mps 720 mmHg 73%
    16:00 +14°C° 0 mm 1 mps 720 mmHg 79%
    17:00 +13°C° 0 mm 1 mps 720 mmHg 81%
    18:00 +12°C° 0 mm 1 mps 720 mmHg 83%
    19:00 +11°C° 0 mm 1 mps 720 mmHg 85%
    20:00 +11°C° 0 mm 1 mps 720 mmHg 83%
    21:00 +10°C° 0 mm 1 mps 720 mmHg 82%
    22:00 +10°C° 0 mm 1 mps 720 mmHg 81%
    23:00 +10°C° 0 mm 1 mps 720 mmHg 79%

    15 November, Thursday

    Time Temperature Precipitation Wind Pressure Humidity
    00:00 +10°C° 0 mm 1 mps 720 mmHg 78%
    01:00 +10°C° 0 mm 1 mps 719 mmHg 77%
    02:00 +10°C° 0 mm 1 mps 719 mmHg 76%
    03:00 +10°C° 0 mm 1 mps 719 mmHg 75%
    04:00 +10°C° 0 mm 1 mps 719 mmHg 74%
    05:00 +9°C° 0 mm 1 mps 719 mmHg 73%
    06:00 +9°C° 0 mm 1 mps 719 mmHg 72%
    07:00 +9°C° 0 mm 1 mps 719 mmHg 71%
    08:00 +11°C° 0 mm 1 mps 719 mmHg 67%
    09:00 +12°C° 0 mm 1 mps 719 mmHg 63%
    10:00 +14°C° 0 mm 1 mps 719 mmHg 59%
    11:00 +15°C° 0 mm 1 mps 719 mmHg 57%
    12:00 +16°C° 0 mm 1 mps 719 mmHg 55%
    13:00 +18°C° 0 mm 1 mps 718 mmHg 54%
    14:00 +16°C° 0 mm 1 mps 718 mmHg 61%
    15:00 +15°C° 0 mm 1 mps 718 mmHg 68%
    16:00 +13°C° 0 mm 1 mps 718 mmHg 75%
    17:00 +12°C° 0 mm 1 mps 718 mmHg 77%
    18:00 +11°C° 0 mm 1 mps 718 mmHg 79%
    19:00 +10°C° 0 mm 1 mps 718 mmHg 81%
    20:00 +10°C° 0 mm 1 mps 718 mmHg 80%
    21:00 +10°C° 0 mm 1 mps 718 mmHg 78%
    22:00 +10°C° 0 mm 1 mps 718 mmHg 77%
    23:00 +9°C° 0 mm 1 mps 718 mmHg 76%

    16 November, Friday

    Time Temperature Precipitation Wind Pressure Humidity
    00:00 +9°C° 0 mm 1 mps 719 mmHg 76%
    01:00 +9°C° 0 mm 1 mps 719 mmHg 75%
    02:00 +9°C° 0 mm 1 mps 719 mmHg 75%
    03:00 +9°C° 0 mm 1 mps 719 mmHg 74%
    04:00 +9°C° 0 mm 1 mps 719 mmHg 74%
    05:00 +9°C° 0 mm 1 mps 719 mmHg 74%
    06:00 +8°C° 0 mm 1 mps 719 mmHg 73%
    07:00 +8°C° 0 mm 1 mps 719 mmHg 73%
    08:00 +10°C° 0 mm 1 mps 719 mmHg 68%
    09:00 +10°C° 0 mm 0 mps 719 mmHg 64%
    10:00 +12°C° 0 mm 0 mps 719 mmHg 60%
    11:00 +14°C° 0 mm 1 mps 719 mmHg 59%
    12:00 +14°C° 0 mm 1 mps 719 mmHg 59%
    13:00 +15°C° 0 mm 1 mps 718 mmHg 58%
    14:00 +14°C° 0 mm 1 mps 718 mmHg 65%
    15:00 +13°C° 0 mm 1 mps 718 mmHg 72%
    16:00 +12°C° 0 mm 1 mps 718 mmHg 80%
    17:00 +11°C° 0 mm 1 mps 718 mmHg 83%
    18:00 +9°C° 0 mm 1 mps 718 mmHg 86%
    19:00 +8°C° 0 mm 1 mps 718 mmHg 89%
    20:00 +8°C° 0 mm 1 mps 719 mmHg 89%
    21:00 +7°C° 0 mm 2 mps 719 mmHg 88%
    22:00 +7°C° 0 mm 2 mps 719 mmHg 87%
    23:00 +7°C° 0 mm 2 mps 719 mmHg 87%

    17 November, Saturday

    Time Temperature Precipitation Wind Pressure Humidity
    00:00 +6°C° 0 mm 2 mps 719 mmHg 86%
    01:00 +6°C° 0 mm 2 mps 720 mmHg 86%
    02:00 +6°C° 0 mm 2 mps 720 mmHg 86%
    03:00 +6°C° 0 mm 2 mps 720 mmHg 85%
    04:00 +6°C° 0 mm 2 mps 720 mmHg 85%
    05:00 +5°C° 0 mm 2 mps 720 mmHg 84%
    06:00 +5°C° 0 mm 2 mps 720 mmHg 84%
    07:00 +5°C° 0 mm 2 mps 720 mmHg 83%
    08:00 +6°C° 0 mm 2 mps 720 mmHg 78%
    09:00 +7°C° 0 mm 2 mps 720 mmHg 74%
    10:00 +8°C° 0 mm 2 mps 720 mmHg 69%
    11:00 +9°C° 0 mm 2 mps 719 mmHg 65%
    12:00 +10°C° 0 mm 2 mps 719 mmHg 62%
    13:00 +12°C° 0 mm 2 mps 719 mmHg 59%
    14:00 +10°C° 0 mm 2 mps 719 mmHg 63%
    15:00 +9°C° 0 mm 2 mps 718 mmHg 67%
    16:00 +8°C° 0 mm 2 mps 718 mmHg 72%
    17:00 +7°C° 0 mm 2 mps 718 mmHg 75%
    18:00 +6°C° 0 mm 2 mps 719 mmHg 78%
    19:00 +5°C° 0 mm 2 mps 719 mmHg 81%
    20:00 +5°C° 0 mm 2 mps 719 mmHg 80%
    21:00 +4°C° 0 mm 2 mps 719 mmHg 79%
    22:00 +4°C° 0 mm 2 mps 719 mmHg 78%
    23:00 +4°C° 0 mm 2 mps 719 mmHg 77%
    Show more